When you browse on this site, cookies collect data to enhance your experience and personalize the content and advertising you see.
Visit our Privacy Policy to learn more. By continuing to use the site, you agree to this use of cookies and data.

Stündliche Wetter Tarin Kowt

Heute, 9 August, Sonntag

Zeit Temperatur Niederschläge Wind Luftdruck Luftfeuchtigkeit
00:00 +25°C° 0.2 mm 1 m/S 614 mmHg 62%
01:00 +25°C° 0.2 mm 1 m/S 614 mmHg 62%
02:00 +24°C° 0 mm 1 m/S 613 mmHg 63%
03:00 +24°C° 0 mm 1 m/S 613 mmHg 64%
04:00 +23°C° 0 mm 1 m/S 612 mmHg 65%
05:00 +24°C° 0 mm 1 m/S 613 mmHg 62%
06:00 +25°C° 0 mm 1 m/S 613 mmHg 59%
07:00 +25°C° 0 mm 2 m/S 614 mmHg 56%
08:00 +27°C° 0 mm 2 m/S 614 mmHg 49%
09:00 +29°C° 0 mm 2 m/S 615 mmHg 42%
10:00 +31°C° 0 mm 2 m/S 615 mmHg 35%
11:00 +32°C° 0 mm 2 m/S 615 mmHg 29%
12:00 +35°C° 0 mm 2 m/S 615 mmHg 23%
13:00 +37°C° 0 mm 3 m/S 615 mmHg 16%
14:00 +37°C° 0 mm 3 m/S 615 mmHg 15%
15:00 +38°C° 0 mm 4 m/S 615 mmHg 14%
16:00 +39°C° 0 mm 5 m/S 614 mmHg 12%
17:00 +37°C° 0 mm 5 m/S 614 mmHg 16%
18:00 +35°C° 0 mm 5 m/S 614 mmHg 19%
19:00 +34°C° 0 mm 5 m/S 613 mmHg 22%
20:00 +32°C° 0 mm 4 m/S 613 mmHg 23%
21:00 +30°C° 0 mm 3 m/S 613 mmHg 23%
22:00 +28°C° 0 mm 2 m/S 613 mmHg 24%
23:00 +27°C° 0 mm 2 m/S 612 mmHg 24%

Morgen, 10 August, Montag

Zeit Temperatur Niederschläge Wind Luftdruck Luftfeuchtigkeit
00:00 +26°C° 0 mm 2 m/S 612 mmHg 24%
01:00 +25°C° 0 mm 2 m/S 612 mmHg 23%
02:00 +25°C° 0 mm 2 m/S 612 mmHg 28%
03:00 +24°C° 0 mm 2 m/S 611 mmHg 33%
04:00 +23°C° 0 mm 2 m/S 611 mmHg 37%
05:00 +24°C° 0 mm 2 m/S 612 mmHg 37%
06:00 +25°C° 0 mm 2 m/S 613 mmHg 37%
07:00 +27°C° 0 mm 2 m/S 613 mmHg 37%
08:00 +28°C° 0 mm 2 m/S 614 mmHg 33%
09:00 +30°C° 0 mm 2 m/S 614 mmHg 28%
10:00 +32°C° 0 mm 2 m/S 614 mmHg 24%
11:00 +34°C° 0 mm 2 m/S 615 mmHg 21%
12:00 +36°C° 0 mm 3 m/S 615 mmHg 18%
13:00 +37°C° 0 mm 3 m/S 615 mmHg 15%
14:00 +37°C° 0 mm 3 m/S 614 mmHg 14%
15:00 +37°C° 0 mm 3 m/S 614 mmHg 13%
16:00 +38°C° 0 mm 3 m/S 613 mmHg 12%
17:00 +36°C° 0 mm 3 m/S 613 mmHg 14%
18:00 +34°C° 0 mm 2 m/S 613 mmHg 15%
19:00 +30°C° 0 mm 2 m/S 612 mmHg 16%
20:00 +29°C° 0 mm 1 m/S 612 mmHg 16%
21:00 +28°C° 0 mm 1 m/S 612 mmHg 17%
22:00 +24°C° 0 mm 0 m/S 612 mmHg 17%
23:00 +24°C° 0 mm 0 m/S 612 mmHg 17%

übermorgen, 11 August, Dienstag

Zeit Temperatur Niederschläge Wind Luftdruck Luftfeuchtigkeit
00:00 +26°C° 0 mm 1 m/S 612 mmHg 17%
01:00 +25°C° 0 mm 1 m/S 612 mmHg 17%
02:00 +25°C° 0 mm 1 m/S 612 mmHg 17%
03:00 +24°C° 0 mm 1 m/S 612 mmHg 16%
04:00 +23°C° 0 mm 2 m/S 612 mmHg 16%
05:00 +25°C° 0 mm 2 m/S 612 mmHg 16%
06:00 +27°C° 0 mm 2 m/S 613 mmHg 15%
07:00 +28°C° 0 mm 2 m/S 614 mmHg 14%
08:00 +30°C° 0 mm 2 m/S 615 mmHg 14%
09:00 +32°C° 0 mm 2 m/S 615 mmHg 13%
10:00 +35°C° 0 mm 2 m/S 615 mmHg 12%
11:00 +36°C° 0 mm 2 m/S 615 mmHg 12%
12:00 +37°C° 0 mm 2 m/S 615 mmHg 11%
13:00 +38°C° 0 mm 2 m/S 615 mmHg 10%
14:00 +38°C° 0 mm 2 m/S 615 mmHg 9%
15:00 +39°C° 0 mm 2 m/S 614 mmHg 9%
16:00 +39°C° 0 mm 3 m/S 614 mmHg 9%
17:00 +37°C° 0 mm 3 m/S 614 mmHg 9%
18:00 +35°C° 0 mm 3 m/S 613 mmHg 9%
19:00 +31°C° 0 mm 3 m/S 612 mmHg 9%
20:00 +30°C° 0 mm 2 m/S 613 mmHg 10%
21:00 +29°C° 0 mm 2 m/S 613 mmHg 10%
22:00 +27°C° 0 mm 1 m/S 613 mmHg 10%
23:00 +27°C° 0 mm 1 m/S 612 mmHg 11%

12 August, Mittwoch

Zeit Temperatur Niederschläge Wind Luftdruck Luftfeuchtigkeit
00:00 +26°C° 0 mm 1 m/S 612 mmHg 11%
01:00 +25°C° 0 mm 1 m/S 612 mmHg 12%
02:00 +24°C° 0 mm 1 m/S 612 mmHg 13%
03:00 +24°C° 0 mm 1 m/S 612 mmHg 14%
04:00 +23°C° 0 mm 1 m/S 612 mmHg 14%
05:00 +25°C° 0 mm 1 m/S 613 mmHg 13%
06:00 +27°C° 0 mm 1 m/S 614 mmHg 12%
07:00 +29°C° 0 mm 2 m/S 615 mmHg 11%
08:00 +30°C° 0 mm 2 m/S 615 mmHg 10%
09:00 +32°C° 0 mm 1 m/S 615 mmHg 9%
10:00 +34°C° 0 mm 1 m/S 616 mmHg 9%
11:00 +36°C° 0 mm 2 m/S 616 mmHg 8%
12:00 +38°C° 0 mm 2 m/S 616 mmHg 8%
13:00 +39°C° 0 mm 3 m/S 616 mmHg 8%
14:00 +40°C° 0 mm 4 m/S 615 mmHg 7%
15:00 +40°C° 0 mm 4 m/S 615 mmHg 7%
16:00 +40°C° 0 mm 5 m/S 615 mmHg 7%
17:00 +37°C° 0 mm 5 m/S 614 mmHg 8%
18:00 +35°C° 0 mm 4 m/S 614 mmHg 9%
19:00 +31°C° 0 mm 3 m/S 613 mmHg 11%
20:00 +30°C° 0 mm 3 m/S 613 mmHg 11%
21:00 +29°C° 0 mm 2 m/S 613 mmHg 12%
22:00 +28°C° 0 mm 2 m/S 613 mmHg 13%
23:00 +27°C° 0 mm 2 m/S 613 mmHg 13%

13 August, Donnerstag

Zeit Temperatur Niederschläge Wind Luftdruck Luftfeuchtigkeit
00:00 +26°C° 0 mm 2 m/S 613 mmHg 13%
01:00 +25°C° 0 mm 1 m/S 612 mmHg 14%
02:00 +24°C° 0 mm 1 m/S 612 mmHg 14%
03:00 +23°C° 0 mm 1 m/S 612 mmHg 15%
04:00 +23°C° 0 mm 1 m/S 611 mmHg 15%
05:00 +24°C° 0 mm 2 m/S 612 mmHg 14%
06:00 +26°C° 0 mm 2 m/S 613 mmHg 12%
07:00 +28°C° 0 mm 2 m/S 614 mmHg 11%
08:00 +30°C° 0 mm 2 m/S 615 mmHg 9%
09:00 +32°C° 0 mm 2 m/S 615 mmHg 8%
10:00 +35°C° 0 mm 2 m/S 616 mmHg 7%
11:00 +36°C° 0 mm 2 m/S 616 mmHg 6%
12:00 +38°C° 0 mm 3 m/S 616 mmHg 5%
13:00 +39°C° 0 mm 3 m/S 615 mmHg 4%
14:00 +39°C° 0 mm 3 m/S 615 mmHg 4%
15:00 +39°C° 0 mm 3 m/S 615 mmHg 3%
16:00 +40°C° 0 mm 3 m/S 614 mmHg 3%
17:00 +37°C° 0 mm 3 m/S 614 mmHg 4%
18:00 +35°C° 0 mm 4 m/S 613 mmHg 5%
19:00 +32°C° 0 mm 4 m/S 612 mmHg 6%
20:00 +30°C° 0 mm 3 m/S 613 mmHg 7%
21:00 +29°C° 0 mm 3 m/S 613 mmHg 8%
22:00 +27°C° 0 mm 2 m/S 613 mmHg 10%
23:00 +26°C° 0 mm 2 m/S 612 mmHg 10%

14 August, Freitag

Zeit Temperatur Niederschläge Wind Luftdruck Luftfeuchtigkeit
00:00 +25°C° 0 mm 1 m/S 612 mmHg 11%
01:00 +24°C° 0 mm 1 m/S 611 mmHg 11%
02:00 +23°C° 0 mm 1 m/S 611 mmHg 12%
03:00 +23°C° 0 mm 1 m/S 611 mmHg 12%
04:00 +21°C° 0 mm 2 m/S 611 mmHg 12%
05:00 +24°C° 0 mm 2 m/S 612 mmHg 11%
06:00 +26°C° 0 mm 2 m/S 613 mmHg 10%
07:00 +28°C° 0 mm 3 m/S 614 mmHg 8%
08:00 +30°C° 0 mm 2 m/S 614 mmHg 7%
09:00 +32°C° 0 mm 2 m/S 615 mmHg 6%
10:00 +35°C° 0 mm 2 m/S 615 mmHg 5%
11:00 +36°C° 0 mm 2 m/S 615 mmHg 5%
12:00 +38°C° 0 mm 2 m/S 615 mmHg 4%
13:00 +39°C° 0 mm 2 m/S 615 mmHg 4%
14:00 +39°C° 0 mm 2 m/S 615 mmHg 4%
15:00 +39°C° 0 mm 2 m/S 614 mmHg 3%
16:00 +40°C° 0 mm 2 m/S 614 mmHg 3%
17:00 +37°C° 0 mm 2 m/S 613 mmHg 4%
18:00 +34°C° 0 mm 2 m/S 612 mmHg 5%
19:00 +30°C° 0 mm 2 m/S 612 mmHg 6%
20:00 +29°C° 0 mm 2 m/S 612 mmHg 7%
21:00 +28°C° 0 mm 2 m/S 612 mmHg 9%
22:00 +27°C° 0 mm 2 m/S 612 mmHg 10%
23:00 +27°C° 0 mm 2 m/S 612 mmHg 11%
Mehr zeigen